Time,TemperatureF,DewpointF,PressureIn,WindDirection,WindDirectionDegrees,WindSpeedMPH,WindSpeedGustMPH,Humidity,HourlyPrecipIn,Conditions,Clouds,dailyrainin,SolarRadiationWatts/m^2,SoftwareType,DateUTC
2013-05-17 00:01:00,50.0,34.0,-100.00,ESE,109,4.0,9.0,55,0.00,,,0.00,0.000000,,2013-05-17 05:01:00,
2013-05-17 00:32:00,50.0,34.0,-100.00,ESE,109,4.0,9.0,55,0.00,,,0.00,0.000000,,2013-05-17 05:32:00,
2013-05-17 00:43:00,50.0,34.0,-100.00,ESE,109,4.0,9.0,55,0.00,,,0.00,0.000000,,2013-05-17 05:43:00,
2013-05-17 00:52:00,50.0,34.0,-100.00,ESE,109,4.0,9.0,55,0.00,,,0.00,0.000000,,2013-05-17 05:52:00,
2013-05-17 01:01:00,45.0,35.0,-100.00,East,90,2.0,6.0,67,0.00,,,0.00,0.000000,,2013-05-17 06:01:00,
2013-05-17 01:22:00,45.0,35.0,-100.00,East,90,2.0,6.0,67,0.00,,,0.00,0.000000,,2013-05-17 06:22:00,
2013-05-17 01:32:00,45.0,35.0,-100.00,East,90,2.0,6.0,67,0.00,,,0.00,0.000000,,2013-05-17 06:32:00,
2013-05-17 01:42:00,45.0,35.0,-100.00,East,90,2.0,6.0,67,0.00,,,0.00,0.000000,,2013-05-17 06:42:00,
2013-05-17 01:52:00,45.0,35.0,-100.00,East,90,2.0,6.0,67,0.00,,,0.00,0.000000,,2013-05-17 06:52:00,
2013-05-17 02:01:00,42.0,34.0,-100.00,East,94,3.0,5.0,73,0.00,,,0.00,0.000000,,2013-05-17 07:01:00,
2013-05-17 02:21:00,42.0,34.0,-100.00,East,94,3.0,5.0,73,0.00,,,0.00,0.000000,,2013-05-17 07:21:00,
2013-05-17 02:32:00,42.0,34.0,-100.00,East,94,3.0,5.0,73,0.00,,,0.00,0.000000,,2013-05-17 07:32:00,
2013-05-17 02:43:00,42.0,34.0,-100.00,East,94,3.0,5.0,73,0.00,,,0.00,0.000000,,2013-05-17 07:43:00,
2013-05-17 02:53:00,42.0,34.0,-100.00,East,94,3.0,5.0,73,0.00,,,0.00,0.000000,,2013-05-17 07:53:00,
2013-05-17 03:01:00,43.0,34.0,-100.00,East,97,3.0,7.0,70,0.00,,,0.00,0.000000,,2013-05-17 08:01:00,
2013-05-17 03:23:00,43.0,34.0,-100.00,East,97,3.0,7.0,70,0.00,,,0.00,0.000000,,2013-05-17 08:23:00,
2013-05-17 03:34:00,43.0,34.0,-100.00,East,97,3.0,7.0,70,0.00,,,0.00,0.000000,,2013-05-17 08:34:00,
2013-05-17 03:43:00,43.0,34.0,-100.00,East,97,3.0,7.0,70,0.00,,,0.00,0.000000,,2013-05-17 08:43:00,
2013-05-17 03:52:00,43.0,34.0,-100.00,East,97,3.0,7.0,70,0.00,,,0.00,0.000000,,2013-05-17 08:52:00,
2013-05-17 04:01:00,40.0,36.0,-100.00,ESE,116,0.0,3.0,86,0.00,,,0.00,0.000000,,2013-05-17 09:01:00,
2013-05-17 04:23:00,40.0,36.0,-100.00,ESE,116,0.0,3.0,86,0.00,,,0.00,0.000000,,2013-05-17 09:23:00,
2013-05-17 04:33:00,40.0,36.0,-100.00,ESE,116,0.0,3.0,86,0.00,,,0.00,0.000000,,2013-05-17 09:33:00,
2013-05-17 04:42:00,40.0,36.0,-100.00,ESE,116,0.0,3.0,86,0.00,,,0.00,0.000000,,2013-05-17 09:42:00,
2013-05-17 04:53:00,40.0,36.0,-100.00,ESE,116,0.0,3.0,86,0.00,,,0.00,0.000000,,2013-05-17 09:53:00,
2013-05-17 05:01:00,40.0,36.0,-100.00,ESE,105,0.0,3.0,87,0.00,,,0.00,0.000000,,2013-05-17 10:01:00,
2013-05-17 05:23:00,40.0,36.0,-100.00,ESE,105,0.0,3.0,87,0.00,,,0.00,0.000000,,2013-05-17 10:23:00,
2013-05-17 05:33:00,40.0,36.0,-100.00,ESE,105,0.0,3.0,87,0.00,,,0.00,0.000000,,2013-05-17 10:33:00,
2013-05-17 05:42:00,40.0,36.0,-100.00,ESE,105,0.0,3.0,87,0.00,,,0.00,0.000000,,2013-05-17 10:42:00,
2013-05-17 05:54:00,40.0,36.0,-100.00,ESE,105,0.0,3.0,87,0.00,,,0.00,0.000000,,2013-05-17 10:54:00,
2013-05-17 06:01:00,39.0,37.0,-100.00,SE,146,0.0,2.0,93,0.00,,,0.00,13.000000,,2013-05-17 11:01:00,
2013-05-17 06:34:00,39.0,37.0,-100.00,SE,146,0.0,2.0,93,0.00,,,0.00,13.000000,,2013-05-17 11:34:00,
2013-05-17 06:42:00,39.0,37.0,-100.00,SE,146,0.0,2.0,93,0.00,,,0.00,13.000000,,2013-05-17 11:42:00,
2013-05-17 06:53:00,39.0,37.0,-100.00,SE,146,0.0,2.0,93,0.00,,,0.00,13.000000,,2013-05-17 11:53:00,
2013-05-17 07:01:00,46.0,36.0,-100.00,ESE,112,3.0,5.0,67,0.00,,,0.00,31.000000,,2013-05-17 12:01:00,
2013-05-17 07:33:00,46.0,36.0,-100.00,ESE,112,3.0,5.0,67,0.00,,,0.00,31.000000,,2013-05-17 12:33:00,
2013-05-17 07:43:00,46.0,36.0,-100.00,ESE,112,3.0,5.0,67,0.00,,,0.00,31.000000,,2013-05-17 12:43:00,
2013-05-17 07:53:00,46.0,36.0,-100.00,ESE,112,3.0,5.0,67,0.00,,,0.00,31.000000,,2013-05-17 12:53:00,
2013-05-17 08:01:00,47.0,38.0,-100.00,ENE,67,2.0,5.0,70,0.00,,,0.00,38.000000,,2013-05-17 13:01:00,
2013-05-17 08:33:00,47.0,38.0,-100.00,ENE,67,2.0,5.0,70,0.00,,,0.00,38.000000,,2013-05-17 13:33:00,
2013-05-17 08:42:00,47.0,38.0,-100.00,ENE,67,2.0,5.0,70,0.00,,,0.00,38.000000,,2013-05-17 13:42:00,
2013-05-17 08:52:00,47.0,38.0,-100.00,ENE,67,2.0,5.0,70,0.00,,,0.00,38.000000,,2013-05-17 13:52:00,
2013-05-17 09:01:00,52.0,39.0,-100.00,SE,137,4.0,8.0,61,0.00,,,0.00,215.000000,,2013-05-17 14:01:00,
2013-05-17 09:34:00,52.0,39.0,-100.00,SE,137,4.0,8.0,61,0.00,,,0.00,215.000000,,2013-05-17 14:34:00,
2013-05-17 09:43:00,52.0,39.0,-100.00,SE,137,4.0,8.0,61,0.00,,,0.00,215.000000,,2013-05-17 14:43:00,
2013-05-17 09:53:00,52.0,39.0,-100.00,SE,137,4.0,8.0,61,0.00,,,0.00,215.000000,,2013-05-17 14:53:00,
2013-05-17 10:01:00,58.0,38.0,-100.00,SE,138,6.0,10.0,47,0.00,,,0.00,421.000000,,2013-05-17 15:01:00,
2013-05-17 10:25:00,58.0,38.0,-100.00,SE,138,6.0,10.0,47,0.00,,,0.00,421.000000,,2013-05-17 15:25:00,
2013-05-17 10:37:00,58.0,38.0,-100.00,SE,138,6.0,10.0,47,0.00,,,0.00,421.000000,,2013-05-17 15:37:00,
2013-05-17 10:47:00,58.0,38.0,-100.00,SE,138,6.0,10.0,47,0.00,,,0.00,421.000000,,2013-05-17 15:47:00,
2013-05-17 10:57:00,58.0,38.0,-100.00,SE,138,6.0,10.0,47,0.00,,,0.00,421.000000,,2013-05-17 15:57:00,
2013-05-17 11:01:00,64.0,36.0,-100.00,SE,143,6.0,12.0,35,0.00,,,0.00,649.000000,,2013-05-17 16:01:00,
2013-05-17 11:26:00,64.0,36.0,-100.00,SE,143,6.0,12.0,35,0.00,,,0.00,649.000000,,2013-05-17 16:26:00,
2013-05-17 11:37:00,64.0,36.0,-100.00,SE,143,6.0,12.0,35,0.00,,,0.00,649.000000,,2013-05-17 16:37:00,
2013-05-17 11:50:00,64.0,36.0,-100.00,SE,143,6.0,12.0,35,0.00,,,0.00,649.000000,,2013-05-17 16:50:00,
2013-05-17 11:56:00,64.0,36.0,-100.00,SE,143,6.0,12.0,35,0.00,,,0.00,649.000000,,2013-05-17 16:56:00,
2013-05-17 13:01:00,69.0,36.0,-100.00,SSE,150,6.0,14.0,30,-99.99,,,0.00,945.000000,,2013-05-17 18:01:00,
2013-05-17 13:30:00,69.0,36.0,-100.00,SSE,150,6.0,14.0,30,-99.99,,,0.00,945.000000,,2013-05-17 18:30:00,
2013-05-17 13:40:00,69.0,-99.9,-100.00,SSE,150,6.0,14.0,30,-99.99,,,0.00,945.000000,,2013-05-17 18:40:00,
2013-05-17 13:50:00,-999.0,-99.9,-100.00,SSE,150,6.0,14.0,30,-99.99,,,0.00,945.000000,,2013-05-17 18:50:00,
2013-05-17 14:00:00,69.0,-99.9,-100.00,SSE,150,6.0,14.0,30,-99.99,,,0.00,945.000000,,2013-05-17 19:00:00,
2013-05-17 14:01:00,-999.0,-99.9,-100.00,ESE,113,9.0,14.0,28,0.00,,,0.00,963.000000,,2013-05-17 19:01:00,
2013-05-17 14:30:00,71.0,36.0,-100.00,ESE,113,9.0,14.0,28,0.00,,,0.00,963.000000,,2013-05-17 19:30:00,
2013-05-17 14:40:00,71.0,36.0,-100.00,ESE,113,9.0,14.0,28,0.00,,,0.00,963.000000,,2013-05-17 19:40:00,
2013-05-17 14:51:00,71.0,36.0,-100.00,ESE,113,9.0,14.0,28,0.00,,,0.00,963.000000,,2013-05-17 19:51:00,
2013-05-17 15:01:00,72.0,38.0,-100.00,South,169,6.0,18.0,29,0.00,,,0.00,930.000000,,2013-05-17 20:01:00,
2013-05-17 15:40:00,72.0,38.0,-100.00,South,169,6.0,18.0,29,0.00,,,0.00,930.000000,,2013-05-17 20:40:00,
2013-05-17 15:50:00,72.0,38.0,-100.00,South,169,6.0,18.0,29,0.00,,,0.00,930.000000,,2013-05-17 20:50:00,
2013-05-17 15:58:00,72.0,38.0,-100.00,South,169,6.0,18.0,29,0.00,,,0.00,930.000000,,2013-05-17 20:58:00,
2013-05-17 16:01:00,73.0,41.0,-100.00,SE,131,6.0,13.0,31,0.00,,,0.00,683.000000,,2013-05-17 21:01:00,
2013-05-17 16:26:00,73.0,41.0,-100.00,SE,131,6.0,13.0,31,0.00,,,0.00,683.000000,,2013-05-17 21:26:00,
2013-05-17 16:39:00,73.0,41.0,-100.00,SE,131,6.0,13.0,31,0.00,,,0.00,683.000000,,2013-05-17 21:39:00,
2013-05-17 16:49:00,73.0,41.0,-100.00,SE,131,6.0,13.0,31,0.00,,,0.00,683.000000,,2013-05-17 21:49:00,
2013-05-17 16:58:00,73.0,41.0,-100.00,SE,131,6.0,13.0,31,0.00,,,0.00,683.000000,,2013-05-17 21:58:00,
2013-05-17 17:28:00,72.0,41.0,-100.00,SE,138,7.0,13.0,32,0.00,,,0.00,613.000000,,2013-05-17 22:28:00,
2013-05-17 17:38:00,72.0,41.0,-100.00,SE,138,7.0,13.0,32,0.00,,,0.00,613.000000,,2013-05-17 22:38:00,
2013-05-17 17:47:00,72.0,41.0,-100.00,SE,138,7.0,13.0,32,0.00,,,0.00,613.000000,,2013-05-17 22:47:00,
2013-05-17 17:55:00,72.0,41.0,-100.00,SE,138,7.0,13.0,32,0.00,,,0.00,613.000000,,2013-05-17 22:55:00,
2013-05-17 18:23:00,72.0,43.0,-100.00,South,183,6.0,14.0,35,-99.99,,,0.00,363.000000,,2013-05-17 23:23:00,
2013-05-17 18:38:00,72.0,43.0,-100.00,South,183,6.0,14.0,35,-99.99,,,0.00,363.000000,,2013-05-17 23:38:00,
2013-05-17 18:47:00,72.0,43.0,-100.00,South,183,6.0,14.0,35,-99.99,,,0.00,363.000000,,2013-05-17 23:47:00,
2013-05-17 18:54:00,72.0,43.0,-100.00,South,183,6.0,14.0,35,-99.99,,,0.00,363.000000,,2013-05-17 23:54:00,
2013-05-17 20:24:00,66.0,48.0,-100.00,SSW,201,6.0,15.0,52,-99.99,,,0.00,88.000000,,2013-05-18 01:24:00,
2013-05-17 20:32:00,66.0,48.0,-100.00,SSW,201,6.0,15.0,52,-99.99,,,0.00,88.000000,,2013-05-18 01:32:00,
2013-05-17 20:43:00,66.0,48.0,-100.00,SSW,201,6.0,15.0,52,-99.99,,,0.00,88.000000,,2013-05-18 01:43:00,
2013-05-17 20:52:00,66.0,48.0,-100.00,SSW,201,6.0,15.0,52,-99.99,,,0.00,88.000000,,2013-05-18 01:52:00,
2013-05-17 21:32:00,62.0,48.0,-100.00,SSW,195,2.0,9.0,61,-99.99,,,0.00,5.000000,,2013-05-18 02:32:00,
2013-05-17 21:43:00,62.0,48.0,-100.00,SSW,195,2.0,9.0,61,-99.99,,,0.00,5.000000,,2013-05-18 02:43:00,
2013-05-17 21:54:00,62.0,48.0,-100.00,SSW,195,2.0,9.0,61,-99.99,,,0.00,5.000000,,2013-05-18 02:54:00,
2013-05-17 22:01:00,59.0,48.0,-100.00,South,191,3.0,6.0,67,-99.99,,,0.00,0.000000,,2013-05-18 03:01:00,
2013-05-17 22:33:00,59.0,48.0,-100.00,South,191,3.0,6.0,67,-99.99,,,0.00,0.000000,,2013-05-18 03:33:00,
2013-05-17 22:43:00,59.0,48.0,-100.00,South,191,3.0,6.0,67,-99.99,,,0.00,0.000000,,2013-05-18 03:43:00,
2013-05-17 22:53:00,59.0,48.0,-100.00,South,191,3.0,6.0,67,-99.99,,,0.00,0.000000,,2013-05-18 03:53:00,
2013-05-17 23:01:00,58.0,49.0,-100.00,South,179,2.0,6.0,71,0.00,,,0.00,0.000000,,2013-05-18 04:01:00,
2013-05-17 23:33:00,58.0,49.0,-100.00,South,179,2.0,6.0,71,0.00,,,0.00,0.000000,,2013-05-18 04:33:00,
2013-05-17 23:43:00,58.0,49.0,-100.00,South,179,2.0,6.0,71,0.00,,,0.00,0.000000,,2013-05-18 04:43:00,
2013-05-17 23:52:00,58.0,49.0,-100.00,South,179,2.0,6.0,71,0.00,,,0.00,0.000000,,2013-05-18 04:52:00,